Regional Weather Roundup
Issued by NWS Portland, ME

Current Version | Previous Version | Text Only | Print | Product List | Glossary Off
Versions: 1 2 3 4 5 6 7 8 9 10 11 12 13 14 15 16 17 18 19 20 21 22 23 24 25 26 27 28 29 30 31 32 33 34 35 36 37 38 39 40 41 42 43 44 45 46 47 48 49 50
000 ASUS41 KGYX 191810 RWRGYX WEATHER ROUNDUP FOR MAINE AND NEW HAMPSHIRE NATIONAL WEATHER SERVICE GRAY ME 200 PM EDT WED SEP 19 2018 MEZ002-005-006-010-012-015-018-020-021-024-026-027-029-191900- MAINE CITY SKY/WX TMP DP RH WIND PRES REMARKS PORTLAND CLOUDY 65 55 70 NE7 29.99F 6HR MIN TEMP: 57; 6HR MAX TEMP: 65; SANFORD CLOUDY 64 55 72 N9 30.00S BAR HARBOR CLOUDY 60 55 83 N7 30.00F WISCASSET CLOUDY 63 54 72 VRB3 30.01S 6HR MIN TEMP: 57; 6HR MAX TEMP: 64; ROCKLAND CLOUDY 59 54 83 VRB5 30.00S FRYEBURG CLOUDY 64 53 67 N7 30.01S 6HR MIN TEMP: 57; 6HR MAX TEMP: 65; LEWISTONAUBURN CLOUDY 61 53 75 N8 30.01S AUGUSTA CLOUDY 61 52 72 NE13 30.02S 6HR MIN TEMP: 52; 6HR MAX TEMP: 61; WATERVILLE CLOUDY 60 52 74 N9 30.00S BANGOR CLOUDY 60 53 77 N10 30.02S 6HR MIN TEMP: 53; 6HR MAX TEMP: 61; 6HR PCP: TRACE; GREENVILLE N/A 57 52 83 N8 30.02S 6HR MIN TEMP: 49; 6HR MAX TEMP: 58; MILLINOCKET CLOUDY 56 49 77 NE8 30.06F 6HR MIN TEMP: 50; 6HR MAX TEMP: 57; HOULTON CLOUDY 58 50 75 NE10 30.04F 6HR MIN TEMP: 48; 6HR MAX TEMP: 58; PRESQUE ISLE CLOUDY 56 47 71 N5 30.08S 6HR MIN TEMP: 47; 6HR MAX TEMP: 56; FRENCHVILLE CLOUDY 53 45 74 NE6 30.10R 6HR MIN TEMP: 46; 6HR MAX TEMP: 54; CARIBOU CLOUDY 55 47 74 N8 30.08R 6HR MIN TEMP: 47; 6HR MAX TEMP: 57; $$ NHZ002-005-008-009-011-012-014-191900- NEW HAMPSHIRE CITY SKY/WX TMP DP RH WIND PRES REMARKS PORTSMOUTH CLOUDY 63 56 79 E6 29.97F ROCHESTER CLOUDY 64 57 78 VRB3 29.99S 6HR MIN TEMP: 59; 6HR MAX TEMP: 65; NASHUA CLOUDY 63 60 90 E5 29.99S MANCHESTER CLOUDY 64 58 80 E5 29.97S 6HR MIN TEMP: 61; 6HR MAX TEMP: 65; CONCORD CLOUDY 65 58 78 CALM 29.98F 6HR MIN TEMP: 61; 6HR MAX TEMP: 65; 6HR PCP: TRACE; LACONIA CLOUDY 64 57 78 E9 29.99S PLYMOUTH CLOUDY 66 59 76 E6 29.98S BERLIN CLOUDY 66 54 65 N9 30.00S 6HR MIN TEMP: 60; 6HR MAX TEMP: 67; WHITEFIELD CLOUDY 65 52 62 NW7 30.01R 6HR MIN TEMP: 60; 6HR MAX TEMP: 66; JAFFREY CLOUDY 68 61 78 VRB3 29.98F 6HR MIN TEMP: 63; 6HR MAX TEMP: 68; KEENE PTSUNNY N/A N/A N/A VRB5 29.95F LEBANON CLOUDY 71 55 56 N7 29.97S 6HR MIN TEMP: 64; 6HR MAX TEMP: 73; MT WASHINGTON CLOUDY 50 45 81 NW6 N/A 6HR MIN TEMP: 49; 6HR MAX TEMP: 52; $$ VTZ005-007-008-191900- VERMONT CITY SKY/WX TMP DP RH WIND PRES REMARKS ST JOHNSBURY N/A 63 50 62 MISG 30.00S MONTPELIER CLOUDY 63 52 67 N8 30.05S BURLINGTON FAIR 65 50 58 N12 30.04F $$ MAZ007-012-024-CTZ003-RIZ002-NYZ038-NYZ072-191900- SOUTHERN NEW ENGLAND AND NY CITY SKY/WX TMP DP RH WIND PRES REMARKS BOSTON CLOUDY 64 58 80 NE13 29.98S WORCESTER CLOUDY 61 59 93 NE6 29.98S NANTUCKET PTSUNNY 69 62 78 N21G30 29.90S PROVIDENCE CLOUDY 67 61 81 NE15 29.96R HARTFORD PTSUNNY 77 61 57 NE10 29.93S ALBANY PTSUNNY 73 57 57 N10 29.98S NEW YORK CITY PTSUNNY 80 65 59 E8 29.90S $$ ANZ081-ANZ082-ANZ150-NHZ014-MEZ023>029-191900- COASTAL MARINE OBSERVATIONS STATION/POSITION TIME TEMP WIND PRES WAVE AIR SEA DIR/SP/G HT/PER (UTC) (F) (DEG/KT/KT) (MB) (FT/S) MOUNT DESERT ROC 1800 55 360/ 15/ 16 1015.4S MATINICUS ROCK 1700 56 40/ 12/ 14 1015.4R ISLE OF SHOALS 1700 59 40/ 15/ 16 1014.8R JEFFREYS LEDGE 1736 65 N/A 5/ 6 $$ .............KEY.............. WCI - WIND CHILL TC - TEMPERATURE IN CELSIUS VSB - VISIBILITY IN MILES HX - HEAT INDEX FAIR- INDICATES FEW OR NO CLOUDS BELOW 12,000 FT, WITH NO SIGNIFICANT WEATHER AND/OR OBSTRUCTIONS TO VISIBILITY.

USA.gov is the U.S. government's official web portal to all federal, state and local government web resources and services.